Location: Helsinki
(60.1699°N, 24.9384°E)
Time: 21:06:12
(UTC+02:00)

Transit 2A Rocket - Pass Details

Date: 23 September 2023
Orbit: 593 x 903 km, 66.7° (Epoch: 29 November)

Event Time Altitude Azimuth Distance (km) Brightness Sun altitude
Rises 18:37:45 0° 247° (WSW) 3,262 10.1 4.2°
Reaches altitude 10° 18:40:17 10° 251° (WSW) 2,285 9.5 3.9°
Maximum altitude 18:45:25 61° 331° (NNW) 807 5.4 3.3°
Drops below altitude 10° 18:50:08 10° 53° (NE) 2,095 6.8 2.7°
Sets 18:52:23 0° 57° (ENE) 2,968 7.5 2.4°
